Find Starlink 1333

NORAD ID: 45580 Int'l Des: 2020-025 Owner: SPXS Country: US Constellation: starlink operational
LEOCIRCULAR

当前视图

正在加载3D地球...

About Starlink 1333

Starlink 1333 (NORAD 45580) is a starlink constellation satellite (v1.0) launched Apr 22, 2020 by SPXS of US. It operates in LEO, CIRCULAR orbit with a mass of 260.00 kg.

即将过境

Passes for default location (London). Set your location on the main map for personalized predictions.

高度历史

Loading altitude history...

两行轨道根数

1 45580U 20025BB 26246.64840110 .00041203 00000-0 91972-3 0 9996
2 45580 53.1532 324.4716 0002242 30.8177 329.2960 15.43164580352846
Epoch: Sep 3, 2026 • Age: 9 hours

当前状态

高度 439.5 km
远地点 / 近地点 N/A
速度 7.65 km/s
星下点 -14.24°S, 43.58°W
发射日期 Apr 22, 2020
运行时间 6.3 years
类型 internet

技术详情

分类 Payload
质量 260.00 kg
干质量 248.00 kg
总质量 260.00 kg
长度 0.20 m
直径 2.80 m
跨度 9.00 m
形状 Box + pan
制造商 SPXS
平台类型 Starlink
阶段状态 In Orbit
所有者/国家 SPXS/US

Most Searched